Temperature
8 8 7 7 6 6 6 6 6 6 6 6 6 6 5 5 5 5 5 5 5 5 5 5 4 4 4 4 4 4 4 4 4 4 4 4 4 4 4 4 5 5 5
8 7 7 6 6 6 6 6 6 6 6 6 6 5 5 5 5 5 4 4 4 4 4 4 4 4 4 4 4 3 3 3 3 3 3 3 3 3 3 4 4 4 4
8 7 6 6 6 5 6 6 6 6 6 5 5 5 5 4 4 4 4 4 4 4 4 3 3 3 3 3 3 3 3 3 2 2 2 2 2 2 2 2 3 3 3
7 7 6 6 5 5 5 5 5 5 5 5 5 5 4 4 4 4 4 3 3 3 3 3 3 2 3 2 2 2 2 2 2 2 1 1 1 1 1 1 2 2 2
7 6 6 6 5 5 5 5 5 4 4 4 4 4 4 4 3 3 3 3 3 3 2 2 2 2 2 2 2 2 1 1 1 1 1 1 0 0 0 0 1 1 1
6 6 5 5 5 5 4 4 4 4 4 4 3 3 3 3 3 3 2 2 2 2 2 2 1 1 1 1 1 1 1 1 1 0 0 0 -0 -1 -1 -1 -1 -1 0
5 5 5 5 4 4 4 4 3 3 3 3 3 3 3 2 2 2 2 2 2 1 1 1 1 1 1 1 1 1 0 0 0 -0 -0 -1 -1 -1 -2 -2 -2 -2 -1
4 4 4 4 4 4 3 3 3 3 2 2 2 2 2 2 2 2 2 2 1 1 1 1 1 0 0 0 0 0 -0 -0 -1 -1 -1 -1 -2 -2 -2 -2 -3 -3 -3
4 4 3 3 3 3 3 2 2 2 2 1 1 1 1 1 1 1 1 1 1 1 0 0 0 -0 -0 -0 -1 -1 -1 -1 -1 -2 -2 -2 -2 -3 -3 -3 -3 -3 -4
3 3 3 2 2 2 2 2 2 1 1 1 1 1 1 1 1 1 0 0 0 -0 -0 -0 -0 -1 -1 -1 -1 -1 -1 -2 -2 -2 -2 -3 -3 -3 -3 -3 -4 -4 -4
2 2 2 2 1 1 1 1 1 1 1 0 0 0 0 0 0 -0 -0 -0 -1 -1 -1 -1 -1 -1 -2 -2 -2 -2 -2 -2 -3 -3 -3 -3 -3 -4 -4 -4 -4 -4 -4
2 1 1 1 1 0 0 0 -0 -0 -0 -0 -0 -0 -0 -1 -1 -1 -1 -1 -1 -1 -1 -2 -2 -2 -2 -2 -2 -3 -3 -3 -3 -3 -4 -4 -4 -4 -4 -4 -4 -5 -5
1 1 0 0 -0 -0 -0 -1 -1 -1 -1 -1 -1 -1 -1 -1 -1 -1 -1 -2 -2 -2 -2 -2 -2 -2 -3 -3 -3 -3 -3 -4 -4 -4 -4 -4 -4 -4 -4 -5 -5 -5 -5
-0 -0 -1 -1 -1 -1 -1 -1 -1 -1 -1 -2 -2 -2 -2 -2 -2 -2 -2 -2 -2 -3 -3 -3 -3 -3 -3 -3 -4 -4 -4 -4 -4 -4 -4 -5 -5 -5 -5 -5 -5 -5 -6
-1 -1 -1 -2 -2 -2 -2 -2 -2 -2 -2 -2 -2 -2 -2 -3 -3 -3 -3 -3 -3 -3 -3 -3 -4 -4 -4 -4 -4 -4 -4 -4 -5 -5 -5 -5 -5 -6 -6 -6 -6 -6 -6
-2 -2 -2 -2 -2 -3 -2 -3 -3 -3 -3 -3 -3 -3 -3 -3 -3 -3 -3 -4 -4 -4 -4 -4 -4 -4 -5 -5 -5 -5 -5 -5 -5 -5 -5 -6 -6 -6 -6 -6 -7 -7 -7
-2 -3 -3 -3 -3 -3 -3 -3 -3 -3 -3 -3 -4 -4 -4 -4 -4 -4 -4 -4 -4 -5 -5 -5 -5 -5 -5 -5 -5 -5 -5 -6 -6 -6 -6 -6 -6 -7 -7 -7 -7 -7 -7
-3 -3 -3 -4 -4 -4 -4 -4 -4 -4 -4 -4 -4 -5 -5 -5 -5 -5 -5 -5 -5 -5 -5 -5 -6 -6 -6 -6 -6 -6 -6 -6 -6 -6 -7 -7 -7 -7 -7 -7 -7 -7 -7
-4 -4 -4 -4 -4 -4 -4 -4 -4 -5 -5 -5 -5 -5 -5 -5 -5 -5 -5 -6 -6 -6 -6 -6 -6 -6 -6 -6 -7 -7 -7 -7 -7 -7 -7 -7 -7 -8 -8 -8 -8 -8 -8
-4 -4 -4 -5 -5 -5 -5 -5 -5 -5 -5 -5 -6 -6 -6 -6 -6 -6 -6 -6 -6 -7 -7 -7 -7 -7 -7 -7 -7 -7 -7 -7 -7 -8 -8 -8 -8 -8 -8 -8 -8 -8 -8
-5 -5 -5 -5 -5 -6 -5 -6 -6 -6 -6 -6 -6 -6 -6 -6 -7 -7 -7 -7 -7 -7 -7 -7 -8 -8 -8 -8 -8 -8 -8 -8 -8 -8 -8 -8 -9 -9 -9 -9 -9 -9 -9
-6 -6 -6 -6 -6 -6 -6 -6 -6 -7 -6 -7 -7 -7 -7 -7 -7 -7 -7 -8 -8 -8 -8 -8 -8 -8 -8 -8 -8 -8 -9 -9 -9 -9 -9 -9 -9 -9 -9 -9 -9 -9 -10
-7 -7 -7 -7 -7 -7 -7 -7 -7 -7 -7 -7 -7 -8 -8 -8 -8 -8 -8 -8 -8 -9 -9 -9 -9 -9 -9 -9 -9 -9 -9 -9 -9 -9 -9 -9 -9 -9 -9 -10 -10 -10 -10
-8 -8 -7 -7 -7 -7 -7 -8 -8 -8 -8 -8 -8 -8 -8 -8 -9 -9 -9 -9 -9 -9 -9 -10 -9 -9 -9 -9 -10 -10 -10 -10 -10 -10 -10 -10 -10 -10 -10 -10 -10 -10 -10
-8 -8 -8 -8 -8 -8 -8 -8 -8 -8 -9 -9 -9 -9 -9 -9 -9 -9 -9 -10 -10 -10 -10 -10 -10 -10 -10 -10 -10 -10 -10 -10 -10 -10 -10 -10 -10 -10 -10 -10 -10 -11 -11
-9 -9 -9 -9 -9 -9 -9 -9 -9 -9 -9 -9 -9 -9 -10 -10 -10 -10 -10 -10 -10 -10 -10 -10 -10 -10 -10 -10 -10 -10 -10 -10 -11 -11 -11 -11 -11 -11 -11 -11 -11 -11 -11
Wind_Speed
8 8 9 9 10 9 10 10 10 9 8 6 5 5 4 3 3 4 6 6 6 6 5 4 4 4 3 2 3 3 3 3 3 2 3 2 2 2 3 4 4 5 6
8 9 9 9 10 10 10 10 10 9 8 6 5 4 5 4 3 4 5 6 6 5 5 4 3 3 3 3 3 3 2 2 3 2 1 1 2 3 3 3 3 4 6
8 9 10 10 9 9 10 10 9 9 8 8 6 6 4 4 3 3 3 4 6 5 5 4 4 3 3 2 2 2 2 1 2 3 2 1 0 2 2 2 3 4 4
7 8 9 10 10 9 9 9 9 8 7 8 8 8 6 5 4 4 3 4 5 5 5 5 5 4 3 2 2 3 2 2 1 2 2 1 0 0 2 2 2 3 3
6 7 8 9 9 9 9 8 9 9 8 7 7 7 6 5 4 5 5 4 4 5 5 5 4 4 3 3 3 3 2 2 1 1 2 2 2 1 1 2 3 3 3
5 5 6 8 8 8 8 8 9 8 8 7 7 7 7 7 7 6 5 4 3 3 4 5 4 4 3 3 2 3 2 2 2 2 2 1 1 2 1 1 2 3 3
4 5 7 7 8 9 9 8 9 8 8 8 7 7 7 7 7 6 5 5 3 3 3 3 3 3 3 3 3 3 2 2 1 1 1 1 1 1 2 1 2 3 3
3 4 5 6 7 8 8 8 8 8 8 7 6 6 6 5 4 5 5 5 4 3 3 3 3 3 4 3 3 2 2 2 1 1 1 1 1 2 1 1 2 3 3
3 4 4 5 6 7 7 8 8 8 7 7 6 6 5 5 5 5 4 4 4 3 4 4 3 3 3 3 3 2 1 1 1 1 1 1 1 1 1 1 1 2 3
4 4 4 5 5 5 6 7 7 7 7 6 6 5 5 5 5 5 5 4 4 4 4 4 3 3 3 3 2 2 1 1 0 0 0 1 1 1 1 1 2 2 3
3 4 4 5 5 6 6 6 6 6 6 6 5 5 4 4 5 4 4 4 4 4 4 4 4 3 3 2 2 2 1 1 0 0 0 1 1 1 1 2 2 2 2
3 4 4 5 5 5 5 5 6 6 5 6 5 5 4 4 4 4 4 4 4 4 4 3 3 3 3 2 2 2 1 1 1 1 1 1 1 1 2 1 2 3 3
4 4 4 4 4 5 5 5 5 5 5 5 5 5 5 4 4 4 4 4 4 4 3 3 3 3 2 2 2 2 1 1 1 1 1 1 1 2 2 2 3 3 3
3 3 3 3 4 4 4 5 5 5 5 5 5 5 4 4 4 4 4 3 3 4 3 3 3 2 2 1 1 1 1 1 1 1 1 2 2 2 3 3 3 3 3
2 3 3 3 3 3 3 4 4 4 5 5 4 4 4 4 4 4 3 3 3 3 3 2 2 1 1 1 1 1 1 1 1 1 2 2 3 4 4 4 3 3 3
2 2 2 3 2 2 3 3 4 4 5 5 4 4 4 4 3 3 3 3 2 2 2 2 2 1 1 2 2 1 1 1 1 2 2 3 4 6 7 7 7 6 5
2 1 1 2 2 2 3 3 4 4 5 5 4 4 4 4 3 3 3 3 2 2 2 2 1 1 1 2 2 2 1 2 2 2 3 3 4 5 4 6 8 8 9
2 1 1 1 2 2 3 3 4 4 5 4 4 3 3 3 3 3 2 2 2 2 2 2 1 1 1 2 3 3 2 2 3 3 3 3 3 4 4 4 4 5 6
2 1 1 2 2 3 3 4 4 4 4 4 3 3 3 3 3 2 2 2 2 1 1 1 1 1 2 3 3 3 2 2 3 4 3 4 4 7 7 4 4 5 6
3 2 2 3 3 3 3 4 4 4 3 3 3 2 2 2 2 2 1 1 1 1 1 0 1 1 2 3 4 3 2 2 3 3 4 6 6 8 8 4 4 5 6
4 4 3 3 3 3 4 4 3 2 2 3 3 2 2 2 2 1 1 1 1 1 1 1 1 1 2 3 4 4 1 2 3 3 3 4 7 8 9 7 4 7 7
4 4 3 3 3 3 4 4 2 2 3 3 3 2 2 1 1 2 1 1 1 1 1 1 1 1 2 3 3 4 4 4 2 3 3 4 7 9 9 7 8 10 8
4 4 3 3 3 3 3 3 2 2 3 3 2 2 2 1 1 1 1 1 1 1 1 1 1 1 1 2 4 5 5 6 4 3 6 7 8 8 7 8 10 8 4
3 3 3 3 3 3 3 3 3 3 3 2 2 2 2 1 1 0 0 1 1 1 1 1 2 2 2 1 2 2 4 5 5 4 6 8 9 7 7 6 6 4 3
3 3 3 3 3 4 3 3 3 3 3 2 2 2 1 1 1 0 0 1 1 2 2 2 2 2 2 4 5 3 3 2 4 3 2 3 3 3 3 3 3 3 3
3 3 3 3 3 3 3 3 2 3 2 2 2 1 1 0 1 0 1 2 2 3 3 3 3 3 5 7 7 7 7 7 7 4 2 3 3 4 4 4 4 4 4
Wind_Direction
178 165 162 157 156 157 159 160 159 153 146 145 144 138 134 122 99 93 98 97 93 89 85 73 64 55 54 60 56 51 43 33 26 25 8 3 23 57 66 65 60 49 43
172 163 160 161 165 164 164 163 162 158 155 152 146 138 132 121 111 98 99 102 96 91 95 80 67 64 67 66 60 59 44 31 22 19 5 11 6 21 24 34 48 46 44
179 169 167 167 163 164 166 166 161 159 154 143 133 131 119 117 115 120 111 100 103 96 93 90 78 67 67 84 63 55 62 42 8 25 42 54 330 321 326 8 36 36 31
176 167 167 168 168 165 156 154 154 153 149 146 150 153 156 157 152 143 130 111 111 102 95 91 87 76 66 77 62 43 40 53 13 4 17 29 16 353 318 317 8 14 10
173 170 168 167 161 155 152 153 152 151 149 149 154 154 149 142 135 135 133 123 104 104 103 100 91 79 72 67 57 50 42 43 37 15 356 1 4 2 297 297 331 345 339
149 149 151 146 145 144 146 151 153 153 153 153 154 154 152 146 145 145 143 136 124 104 101 103 96 89 82 78 72 65 55 39 35 22 23 16 2 342 340 316 317 314 310
136 140 144 148 147 148 150 153 154 154 154 154 155 153 152 153 156 154 150 144 138 132 124 106 101 97 94 93 86 75 76 59 50 36 20 19 356 331 328 320 308 307 303
118 132 144 148 149 150 150 153 154 153 152 152 150 147 148 153 153 150 150 149 151 147 132 121 115 108 106 102 90 73 81 66 61 29 29 15 351 344 339 309 314 311 304
118 128 132 135 139 146 152 154 151 149 149 147 143 144 146 144 146 142 139 138 137 139 133 127 120 114 109 105 100 94 92 82 74 52 25 6 338 339 327 314 290 273 290
106 116 120 121 126 133 137 139 144 146 142 141 144 142 140 144 140 137 139 139 135 133 135 133 128 120 115 113 102 97 87 99 88 75 40 323 312 323 318 306 298 281 263
103 105 109 111 114 115 123 131 134 135 137 140 138 134 135 133 132 137 139 139 133 131 139 141 137 135 133 122 119 127 124 124 112 5 339 292 297 297 296 295 292 288 280
93 92 100 106 110 116 124 131 133 136 137 136 135 134 132 128 128 132 133 133 137 134 136 138 141 147 144 134 142 151 145 157 205 265 276 288 304 302 293 292 287 282 279
86 84 88 98 109 115 120 126 128 126 124 127 131 132 134 135 136 134 131 133 139 139 137 140 146 149 149 150 155 164 167 190 219 236 251 273 285 289 295 292 282 281 287
92 95 91 88 95 107 117 122 124 124 127 129 133 136 141 141 138 134 131 134 138 141 143 147 148 149 154 163 169 173 171 196 233 247 263 274 267 269 276 278 275 277 283
80 95 102 99 95 97 105 113 118 121 128 131 132 131 127 126 125 127 129 128 132 137 140 139 138 146 167 179 168 199 211 220 250 264 271 274 275 280 281 281 278 277 272
42 76 92 107 108 110 116 118 121 125 126 130 130 125 124 125 126 128 128 128 135 140 139 148 154 174 197 209 224 246 252 257 254 269 275 276 273 281 287 291 292 289 277
12 41 93 128 126 125 129 132 130 126 125 125 126 125 126 131 131 129 131 142 152 151 155 163 161 184 210 227 242 259 284 267 263 265 275 281 286 292 289 291 295 296 293
11 14 72 97 93 99 105 116 119 120 123 123 125 126 127 131 130 130 139 146 148 164 174 173 184 199 230 248 258 268 281 265 266 265 265 271 281 281 286 288 293 288 291
15 20 66 99 95 94 107 117 117 118 119 123 123 125 129 134 137 143 148 146 148 157 167 168 187 197 253 268 263 269 272 271 271 272 271 272 269 277 281 284 285 291 294
33 55 77 83 86 82 101 115 118 121 126 128 126 124 127 133 141 148 145 143 150 160 167 208 209 210 237 270 273 274 268 277 284 285 284 281 279 283 286 277 270 282 289
37 53 72 83 84 85 98 107 109 115 116 110 109 111 115 129 141 142 141 140 144 137 180 236 263 251 252 268 274 278 280 282 288 292 292 288 291 292 292 291 273 276 290
37 47 60 75 79 89 104 105 99 80 89 101 106 111 115 119 120 135 137 134 153 174 212 227 259 256 258 275 278 284 285 289 282 286 291 291 294 296 296 297 292 293 298
33 42 56 67 68 79 100 109 84 82 90 98 110 115 103 95 103 138 154 162 177 190 234 230 247 275 284 280 287 292 293 292 290 283 291 297 298 298 297 294 295 298 294
36 42 55 66 61 61 73 86 82 86 95 106 109 107 106 100 101 157 178 169 196 211 249 259 266 275 285 281 290 292 296 296 295 293 292 296 298 297 296 299 302 296 284
36 47 54 65 60 58 59 63 74 88 91 91 86 80 85 99 87 56 294 253 234 232 234 242 251 260 268 277 287 292 286 281 274 288 284 286 291 293 292 291 288 288 296
36 43 49 56 57 59 53 52 67 87 92 81 68 61 63 66 72 73 1 334 311 299 291 286 284 282 283 287 289 291 293 294 295 295 289 281 278 280 287 288 286 282 282
Height
1473 1476 1478 1480 1483 1486 1488 1490 1493 1496 1499 1502 1504 1507 1509 1511 1513 1515 1516 1518 1519 1520 1520 1521 1522 1523 1523 1524 1524 1524 1524 1524 1525 1524 1524 1525 1526 1526 1527 1527 1527 1528 1528
1470 1472 1474 1476 1479 1481 1484 1487 1490 1492 1496 1499 1502 1504 1507 1509 1511 1513 1514 1516 1517 1518 1519 1520 1520 1521 1522 1522 1523 1523 1523 1523 1524 1524 1523 1523 1525 1525 1525 1525 1525 1526 1526
1466 1469 1471 1473 1475 1478 1481 1483 1486 1489 1492 1496 1499 1502 1504 1506 1508 1510 1512 1513 1515 1516 1517 1518 1519 1519 1520 1520 1520 1521 1521 1521 1522 1523 1524 1523 1523 1523 1523 1523 1523 1523 1523
1464 1466 1467 1470 1472 1475 1478 1481 1484 1486 1489 1492 1495 1497 1499 1502 1504 1507 1509 1511 1512 1514 1515 1516 1517 1518 1518 1519 1519 1519 1520 1520 1520 1521 1522 1523 1522 1522 1520 1521 1521 1521 1521
1460 1462 1465 1467 1470 1472 1475 1478 1481 1484 1487 1489 1492 1494 1497 1499 1502 1504 1506 1508 1510 1511 1513 1514 1515 1516 1516 1517 1517 1518 1518 1519 1519 1519 1520 1520 1521 1520 1520 1518 1518 1518 1519
1458 1460 1463 1465 1467 1470 1473 1476 1478 1481 1484 1487 1489 1492 1494 1496 1498 1500 1503 1505 1506 1508 1510 1512 1513 1514 1514 1515 1515 1516 1516 1517 1517 1517 1517 1518 1518 1518 1517 1516 1516 1516 1516
1457 1458 1460 1462 1464 1467 1470 1473 1476 1478 1481 1484 1486 1489 1492 1494 1496 1498 1500 1502 1503 1505 1507 1509 1510 1511 1512 1512 1513 1513 1514 1514 1515 1515 1515 1515 1516 1516 1515 1515 1514 1514 1513
1456 1457 1459 1461 1463 1465 1468 1470 1473 1476 1479 1481 1484 1486 1489 1491 1494 1496 1498 1499 1501 1503 1505 1506 1507 1508 1509 1509 1510 1511 1511 1512 1512 1513 1513 1513 1513 1514 1513 1514 1513 1512 1511
1456 1457 1459 1460 1462 1464 1466 1469 1471 1474 1476 1479 1481 1484 1487 1489 1491 1493 1495 1497 1499 1501 1502 1503 1504 1506 1506 1507 1507 1508 1509 1509 1510 1510 1510 1510 1511 1511 1511 1511 1511 1511 1509
1457 1457 1458 1460 1461 1463 1465 1467 1470 1472 1474 1477 1479 1482 1484 1487 1489 1491 1492 1494 1496 1498 1499 1501 1502 1503 1504 1504 1505 1505 1506 1507 1507 1507 1508 1508 1508 1508 1508 1509 1509 1508 1508
1457 1457 1458 1459 1461 1462 1464 1466 1468 1470 1472 1475 1477 1480 1482 1484 1486 1488 1490 1491 1493 1495 1497 1498 1499 1500 1501 1502 1502 1503 1504 1504 1504 1505 1505 1505 1505 1505 1505 1505 1505 1505 1504
1456 1457 1458 1459 1460 1461 1463 1465 1467 1469 1471 1473 1475 1478 1480 1482 1483 1485 1487 1489 1491 1492 1494 1495 1496 1497 1498 1499 1499 1500 1501 1501 1501 1502 1502 1502 1502 1502 1502 1502 1502 1501 1501
1457 1457 1458 1459 1460 1461 1463 1464 1466 1467 1469 1471 1473 1475 1477 1479 1480 1482 1484 1486 1488 1489 1491 1492 1493 1494 1495 1496 1497 1497 1498 1498 1499 1499 1499 1499 1498 1498 1498 1498 1498 1497 1497
1457 1457 1458 1458 1459 1460 1462 1463 1464 1466 1468 1469 1471 1473 1475 1476 1478 1480 1481 1483 1485 1487 1488 1489 1490 1491 1492 1493 1494 1495 1495 1495 1496 1496 1495 1495 1495 1495 1494 1494 1494 1493 1493
1457 1457 1458 1458 1459 1460 1461 1462 1463 1465 1466 1468 1469 1471 1473 1474 1476 1477 1479 1481 1482 1484 1485 1486 1487 1488 1489 1490 1491 1492 1492 1492 1492 1492 1492 1491 1491 1491 1491 1490 1490 1489 1488
1457 1457 1458 1458 1458 1459 1459 1461 1462 1463 1464 1466 1467 1469 1471 1472 1474 1475 1477 1478 1480 1481 1482 1483 1484 1485 1486 1487 1488 1489 1489 1489 1488 1488 1488 1488 1488 1487 1487 1487 1486 1486 1485
1456 1457 1457 1457 1457 1458 1458 1459 1460 1462 1463 1464 1466 1467 1469 1470 1472 1473 1474 1476 1477 1478 1479 1480 1481 1482 1483 1484 1485 1485 1485 1485 1485 1485 1484 1484 1484 1483 1483 1482 1482 1481 1481
1455 1455 1456 1456 1456 1457 1457 1458 1459 1460 1461 1462 1464 1466 1467 1469 1470 1471 1472 1473 1474 1475 1476 1477 1478 1479 1480 1481 1481 1482 1482 1482 1481 1481 1481 1480 1480 1479 1479 1478 1477 1477 1476
1454 1454 1454 1454 1455 1455 1456 1457 1457 1459 1460 1461 1463 1464 1466 1467 1468 1469 1470 1471 1472 1473 1474 1474 1475 1476 1477 1478 1478 1478 1478 1478 1478 1477 1477 1477 1476 1476 1475 1474 1473 1472 1471
1453 1452 1452 1453 1453 1454 1455 1455 1456 1457 1458 1460 1461 1463 1464 1465 1466 1467 1468 1469 1470 1470 1471 1472 1473 1473 1474 1474 1475 1475 1475 1474 1474 1474 1473 1473 1472 1472 1471 1470 1469 1467 1466
1452 1451 1451 1451 1452 1453 1453 1454 1455 1456 1457 1458 1460 1461 1462 1463 1464 1465 1466 1467 1467 1468 1469 1469 1470 1470 1471 1471 1471 1471 1471 1471 1470 1470 1469 1469 1468 1468 1467 1466 1465 1463 1463
1451 1451 1450 1451 1451 1452 1452 1453 1453 1455 1456 1456 1458 1459 1460 1461 1462 1462 1463 1464 1465 1465 1466 1466 1466 1467 1468 1468 1468 1468 1468 1468 1467 1466 1466 1465 1464 1464 1463 1462 1460 1460 1458
1451 1450 1450 1450 1450 1451 1451 1451 1452 1453 1454 1455 1456 1457 1457 1459 1459 1460 1461 1461 1462 1462 1463 1463 1463 1464 1464 1465 1465 1464 1464 1464 1463 1463 1462 1461 1461 1460 1458 1457 1456 1455 1453
1450 1450 1449 1449 1449 1450 1450 1451 1452 1452 1453 1454 1454 1455 1456 1456 1457 1458 1459 1459 1459 1460 1460 1460 1461 1461 1461 1461 1461 1460 1460 1460 1459 1459 1458 1457 1456 1455 1454 1453 1451 1450 1449
1450 1450 1449 1449 1449 1449 1450 1450 1451 1451 1452 1452 1453 1453 1454 1455 1455 1456 1457 1457 1457 1458 1458 1458 1458 1457 1457 1457 1458 1457 1456 1456 1455 1454 1453 1452 1451 1450 1449 1448 1447 1445 1444
1449 1449 1449 1449 1449 1449 1449 1449 1449 1450 1450 1451 1451 1452 1452 1453 1453 1454 1455 1455 1456 1456 1455 1455 1455 1454 1455 1454 1454 1453 1453 1452 1452 1451 1449 1448 1447 1446 1444 1443 1442 1441 1439